Simultaneous Nadir Overpasses (SNOs) Predictions

Prediction of SNOs between METOP-A and NOAA-19 Satellite Orbit:

Table of predicted SNOs for the next 14.0 days since TLE Epoch: 4/24/2016
Index Date (METOP-A) Time (METOP-A) Lat,Lon (METOP-A) SZA (METOP-A ) Date (NOAA-19) Time (NOAA-19) Lat,Lon (NOAA-19) SZA (NOAA-19 ) Distance(km) Time Diff (sec)
1 04/28/2016 07:50:52 -76.09,-117.50 118.31 04/28/2016 07:49:38 -76.11,-118.19 118.29 18.65 74
2 04/28/2016 08:41:34 75.99, 49.50 61.58 04/28/2016 08:40:32 76.00, 49.46 61.59 1.88 62
3 04/28/2016 09:32:16 -75.98,-143.21 118.45 04/28/2016 09:31:37 -75.97,-143.20 118.45 1.01 39
4 04/28/2016 10:22:56 75.97, 24.10 61.54 04/28/2016 10:22:33 75.95, 24.13 61.52 2.22 23
5 04/28/2016 11:13:38 -75.96,-168.61 118.49 04/28/2016 11:13:39 -75.97,-168.68 118.48 2.03 1
6
